铱星星座 110星 (IRIDIUM 110)

导读

IRIDIUM 110(铱星110)是美国铱星通信公司运营的低轨通信卫星,属于第二代铱星星座(Iridium NEXT),于2018年5月22日发射升空。该卫星运行在近地轨道,是全球覆盖低轨卫星通信网络的组成部分,主要为全球提供语音通话、数据传输服务,在航海、航空、应急救援以及偏远地区通信领域发挥关键作用。作为铱星系统升级换代的卫星之一,它提升了原有网络通信性能与可靠性,保障了星座的持续运营能力。

Basic Information
目录编号:
43481
目录名称:
IRIDIUM 110
国际标识:
2018-047F
轨道中心:
EARTH
卫星名称:
铱星星座 110星
卫星全名:
铱星星座 110星 (IRIDIUM 110)
卫星状态:
在轨 (已飞行3034 天)
发射日期:
2018-05-22 UTC
国别 :
美国 (US)
星等 :
--
Orbit Information
数据来源 国际轨道数据 AOE轨道数据
星历时间 2026-09-11T04:38:26+0800
7小时前
查看轨道信息
2026-09-10T12:00:00+0800
1天前
查看轨道信息
半长轴 7155.806km 7155.801km
偏心率 0.0002286 0.0002336
轨道倾角 86.393° 86.396°
近地点辐角 97.138° 94.359°
升交点赤经 52.580° 52.871°
平近点角 263.007° 288.102°
近地点 776.033km 775.992km
远地点 779.305km 779.336km
周期 100.403分钟 100.403分钟
每日圈数 14.342173 14.342188
Detailed Information
平衡模式:
三轴稳定
覆盖范围:
全球
运营商:
铱星通信公司
运营商所在国:
美国
制造商(研发单位):
阿莱尼亚宇航公司
制造商所在国:
意大利
使用方式:
暂无
Satellite Introduction
铱星(Iridium)是由共66个运作中的通信卫星组成的卫星通信系统。这个系统原本规划77个通信卫星,所以用原子序数为77的铱元素来命名。铱卫星允许人们使用手持型电子设备进行全球性的语音及数据通讯。该卫星仍在工作。
2D Orbit Map
3D Orbit Map
Orbit Altitude Analysis Chart
Orbit Inclination Analysis Chart
Orbit Comprehensive Analysis Chart
View Comprehensive Chart
Conjunction Data List
Event ID Objects TCA Miss Dist (km) Collision Risk Probability Collision Risk Index (CRI) Action
CDM_260904-025403-365604-348124
2026-09-04T
02:54:07+0000
1.491 km
极远距离
6.886169E-6 低风险 0.52
CDM_260911-053604-348105-716523
SL-8 DEB (57165)
2026-09-11T
05:36:45+0000
2.179 km
极远距离
2.2821E-6 低风险 0.42
CDM_260911-034703-028404-348127
2026-09-11T
03:47:54+0000
2.450 km
极远距离
1.454669E-6 低风险 0.38
CDM_260912-213402-152704-348124
REX (21527)
2026-09-12T
21:34:28+0000
2.867 km
极远距离
1.408102E-6 低风险 0.38
Miss Distance Evolution Trend with All Objects
Collision Probability Evolution Trend with All Objects